User: anonymous   Login
Location: Kalberh�ni
(46.4610°N, 7.2453°E)
Time: 02:56:21
(UTC+00:00)
Language:

SL-8 R/B - Orbit

View from above orbital plane
View from above orbital plane
View from above satellite
View from above satellite

Ground track
Ground track

The orbit data is extracted from the following two-line orbital elements,

1 33066U 08031G   21270.53652566 -.00000083  00000-0  18873-4 0  9993
2 33066  48.4454 356.4686 0008180 245.7578 114.2479 14.69777916712704
Epoch (UTC): 27 September 2021 12:52:35
Eccentricity: 0.0008180
inclination: 48.4454°
perigee height: 656 km
apogee height: 667 km
right ascension of ascending node: 356.4686°
argument of perigee: 245.7578°
revolutions per day: 14.69777916
mean anomaly at epoch: 114.2479°
orbit number at epoch: 71270

The dashed part of the orbit path shows where the satellite is in the earth's shadow,  

DLR